Temp
11 11 11 11 11 11 11 11 11 11 11 11 11 11 11 11 12 12 12 12 12 12 13 12 12 12 12 12 12 12 12 12 12 12 12 12 12 12 12 12 12 13 13 13 13 13 13 13 13 13 13 13 13 13 13 13 13 13 13 13 13 13 13 13 13 13 13 13 13
11 11 11 11 11 11 11 11 11 11 11 11 11 11 11 11 11 11 11 12 12 12 12 12 12 12 12 12 12 12 12 12 12 12 12 12 12 12 12 12 12 12 13 13 13 13 13 13 13 13 13 13 13 13 13 13 13 13 13 13 13 13 13 13 13 13 13 13 13
11 11 11 11 11 11 11 11 11 11 11 11 11 11 11 11 11 11 11 11 11 12 12 12 12 12 12 12 12 12 12 12 12 12 12 12 12 12 12 12 12 13 13 13 13 13 13 13 13 13 13 13 13 13 12 12 12 12 12 12 13 13 13 13 13 13 13 13 12
11 11 11 11 11 11 11 11 11 11 11 11 11 11 11 11 10 10 10 11 11 11 11 12 12 12 12 12 12 12 12 12 12 12 12 12 12 12 12 13 13 13 13 13 13 13 13 13 13 13 12 12 12 12 12 12 12 12 12 12 12 12 12 12 12 12 12 12 12
10 11 11 11 11 11 11 11 11 11 11 11 10 10 10 10 10 10 10 11 11 11 11 11 11 11 11 11 12 12 12 12 12 12 12 12 12 12 12 12 12 12 12 12 12 12 12 12 12 12 12 12 12 12 12 12 12 12 12 12 12 12 12 12 12 12 12 13 13
10 10 11 11 11 11 11 11 11 11 11 10 10 10 10 10 10 10 10 11 11 10 10 10 10 10 10 10 11 11 12 12 12 12 12 12 12 12 12 12 12 12 12 12 12 12 12 12 12 12 12 11 11 11 12 12 12 12 12 12 12 12 12 12 12 12 12 13 13
10 10 10 10 11 11 11 11 11 11 11 11 11 11 11 11 10 10 10 10 10 10 10 11 11 11 11 10 10 11 11 11 11 11 12 12 12 12 12 12 12 12 12 12 12 12 12 12 11 11 11 11 11 11 11 12 12 12 12 12 12 12 12 12 12 12 12 13 12
10 10 10 10 11 11 11 11 11 11 10 10 10 11 11 11 10 10 10 10 10 10 10 10 11 11 11 11 11 11 11 11 11 11 11 11 12 12 12 12 11 11 11 12 12 12 12 12 11 11 11 11 11 11 11 11 11 11 11 12 12 12 12 12 12 12 12 12 12
10 10 10 10 10 10 10 10 10 10 10 10 10 10 10 10 10 10 10 10 10 10 10 10 10 10 10 10 11 11 11 11 11 11 11 11 11 11 11 11 11 11 11 11 12 12 12 11 11 11 11 11 11 11 11 11 11 11 11 11 12 12 12 12 12 12 12 12 11
10 10 10 10 10 10 10 10 10 10 10 10 10 10 10 10 10 10 10 10 10 10 10 10 10 10 10 10 10 10 10 11 11 11 11 10 10 10 10 10 10 10 10 11 11 11 11 11 11 11 11 11 11 11 11 11 11 11 11 11 11 11 11 12 12 12 12 11 11
9 9 9 9 9 9 9 9 10 10 10 10 10 10 10 10 10 10 10 10 10 10 10 10 10 10 10 10 10 10 10 10 11 11 11 10 10 10 10 10 10 10 10 10 10 10 10 10 10 11 11 10 10 10 10 10 10 11 11 11 11 11 11 11 11 11 11 11 11
8 8 8 8 8 8 9 9 9 9 9 9 9 9 9 9 9 10 10 10 10 10 10 10 10 10 10 10 10 10 10 10 10 10 10 10 10 10 10 10 10 10 10 10 10 9 10 10 10 10 10 10 10 10 10 10 10 10 10 10 10 11 11 11 11 11 11 10 10
7 7 8 8 8 8 8 8 9 9 9 9 9 9 9 9 9 9 9 9 9 9 9 10 10 10 10 10 10 10 10 10 10 10 10 10 10 10 10 10 10 10 9 9 9 9 9 9 9 9 9 9 9 10 10 10 10 10 10 10 10 10 10 10 10 10 10 10 10
7 7 8 8 8 8 8 8 8 8 8 8 8 8 9 9 9 9 9 9 9 9 9 9 9 9 9 10 10 10 10 10 10 10 10 10 10 10 10 10 9 9 9 9 9 9 9 9 9 9 9 9 9 9 9 9 9 9 10 10 10 10 10 10 10 10 10 10 10
8 8 8 8 8 8 8 8 8 8 8 8 9 9 9 9 9 9 9 9 9 9 9 9 9 9 9 9 9 10 10 10 10 10 10 10 10 9 9 9 9 9 9 9 9 9 9 9 9 9 9 9 9 9 9 9 9 9 10 10 10 10 9 9 9 9 9 9 9
8 8 8 8 8 8 8 8 8 8 8 9 9 9 9 9 9 9 9 9 9 9 9 9 9 9 9 9 9 9 9 9 9 9 9 9 9 9 9 9 9 9 9 9 9 9 9 9 9 9 9 9 9 9 9 9 9 9 9 9 9 9 9 9 9 9 9 9 9
8 8 8 8 8 8 8 8 8 8 9 9 9 9 9 9 9 9 9 9 9 9 9 9 9 9 9 9 9 9 9 9 9 9 9 9 9 9 9 9 9 9 9 9 9 9 9 9 9 9 9 9 9 9 9 9 9 9 9 9 9 9 9 9 9 9 9 9 9
8 8 9 9 9 9 9 9 9 9 9 9 9 9 9 9 9 9 9 9 9 9 9 9 9 9 9 9 9 9 9 9 9 9 9 9 9 9 9 9 9 9 9 9 9 9 9 9 9 9 9 9 9 9 9 9 9 9 9 9 9 9 9 9 9 9 9 9 9
8 8 9 9 9 9 9 9 9 9 9 9 9 9 9 9 9 9 9 9 9 9 9 9 9 9 9 9 9 9 9 9 9 9 9 9 9 9 9 9 9 9 9 9 9 9 9 9 9 9 9 9 9 9 9 9 9 10 10 10 10 10 9 9 9 9 9 9 9
8 8 8 8 8 8 9 9 9 9 9 9 9 9 9 9 9 9 9 9 9 9 9 9 9 9 9 9 9 9 9 9 9 9 9 9 9 9 9 9 9 9 9 9 9 9 10 10 10 10 10 9 9 9 9 9 9 9 10 10 10 10 10 9 9 9 9 9 9
7 7 7 8 8 8 8 8 8 8 8 8 8 8 8 8 8 9 9 9 9 9 9 9 9 9 9 9 9 9 9 9 9 9 9 9 9 9 9 9 9 9 9 9 9 9 10 10 10 10 10 10 10 10 10 10 9 9 9 9 9 9 9 9 9 9 9 9 9
7 7 7 7 7 7 7 7 8 8 8 8 8 8 8 8 8 8 8 9 9 9 9 9 9 9 9 9 9 9 9 9 9 9 9 9 9 9 9 9 9 9 9 9 10 9 9 9 9 10 10 10 10 10 10 10 10 9 9 9 9 9 9 9 9 9 9 9 9
7 7 7 7 7 7 7 7 7 7 8 8 8 8 8 8 8 8 8 8 8 9 9 9 9 9 9 9 10 10 9 9 9 9 9 9 9 9 9 9 9 9 10 10 10 9 9 9 9 9 9 9 10 10 10 10 10 10 10 10 9 9 9 9 9 9 9 10 10
7 7 7 7 7 7 7 7 7 7 7 7 8 8 8 8 8 8 8 8 8 8 8 9 9 9 9 9 9 9 9 9 9 9 9 9 9 9 9 9 9 9 9 9 9 9 9 9 9 9 9 9 9 9 10 10 10 10 10 10 10 10 10 10 10 10 10 10 10
7 7 7 7 7 7 7 7 7 7 7 7 7 7 7 7 8 8 8 8 8 8 8 8 8 8 8 8 9 9 9 9 9 9 9 9 9 9 9 9 9 9 9 9 9 9 9 9 9 9 9 9 9 9 9 9 9 9 10 10 10 10 10 10 10 10 10 10 10
7 7 7 7 7 7 7 7 7 7 7 7 7 7 7 7 7 7 7 8 8 8 8 8 8 8 8 8 8 8 8 8 8 9 9 9 9 9 9 9 9 9 9 9 9 9 9 9 9 9 9 9 9 9 9 9 9 9 9 9 9 10 10 10 10 10 10 10 10
7 7 7 7 7 7 7 7 7 7 7 7 7 7 7 7 7 7 7 7 7 7 7 7 7 8 8 8 8 8 8 8 8 8 8 8 8 9 9 9 9 9 9 9 9 9 9 9 9 9 9 9 9 9 9 9 9 9 9 9 9 9 9 9 10 10 10 9 9
6 7 7 7 7 7 7 7 7 7 7 7 7 7 7 7 7 7 7 7 7 7 7 7 7 7 7 7 8 8 8 8 8 8 8 8 8 8 8 8 8 9 9 9 9 9 9 9 9 9 9 9 9 9 9 9 9 9 9 9 9 9 9 9 9 9 9 9 9
6 6 6 6 6 6 6 7 7 7 7 7 7 7 7 7 7 7 7 7 7 7 7 7 7 7 7 7 7 7 7 7 7 7 8 8 8 8 8 8 8 8 8 8 8 8 8 9 9 9 9 9 9 8 8 8 8 8 8 8 8 9 9 9 9 9 9 9 9
6 6 6 6 6 6 6 6 6 6 6 6 6 6 6 6 6 7 7 7 7 7 7 7 7 7 7 7 7 7 7 7 7 7 7 7 8 8 8 8 8 8 8 8 8 8 8 8 8 8 8 8 8 8 8 8 8 8 8 8 8 8 8 8 9 9 9 9 9
6 6 6 6 6 6 6 6 6 6 6 6 6 6 6 6 6 6 6 6 6 6 6 6 6 6 6 7 7 7 7 7 7 7 7 7 7 8 8 8 8 8 8 8 8 8 8 8 8 8 8 8 8 8 8 7 7 7 7 7 8 8 8 8 8 8 8 8 8
5 6 6 6 6 6 6 6 6 6 6 5 5 5 5 5 5 5 5 5 5 6 6 6 6 6 6 6 6 6 6 6 6 7 7 7 7 7 7 8 8 8 8 8 8 8 8 8 8 8 8 8 8 7 7 7 7 7 7 7 7 7 7 7 7 8 8 8 8
5 5 5 5 5 5 5 5 5 5 5 5 5 5 5 5 5 5 5 5 5 5 5 5 6 6 6 6 6 6 6 6 6 6 6 6 6 7 7 7 7 7 7 8 8 8 8 8 8 8 8 7 7 7 7 7 7 7 7 7 7 7 7 7 7 7 7 7 8
4 4 4 4 5 5 5 5 5 5 5 5 5 5 5 5 5 5 5 5 5 5 5 5 5 5 5 5 5 5 6 6 6 6 6 6 6 6 6 7 7 7 7 7 7 7 7 7 7 7 7 7 7 7 7 7 7 6 6 7 7 7 7 7 7 7 7 7 7
3 4 4 4 4 4 4 4 4 4 4 4 4 4 4 5 5 5 5 5 5 5 5 5 5 5 5 5 5 5 5 5 5 5 5 5 5 5 6 6 6 6 7 7 7 7 7 7 7 7 7 7 7 7 7 7 7 7 6 6 6 7 7 7 7 7 7 7 7
3 3 3 3 3 3 3 3 3 3 3 3 4 4 4 4 4 4 4 4 4 4 4 4 5 5 5 5 5 5 5 5 5 5 5 5 5 5 5 6 6 6 6 6 6 6 7 7 7 7 7 7 7 7 7 7 7 7 7 6 6 6 6 7 7 7 7 7 7
2 2 2 2 2 2 2 2 2 3 3 3 3 3 3 3 3 3 3 3 3 4 4 4 4 4 4 4 4 4 4 4 4 4 5 5 5 5 5 5 5 6 6 6 6 6 6 6 6 6 6 6 6 7 7 7 7 7 7 6 6 6 6 6 7 7 7 7 7
1 1 1 1 1 1 1 1 1 2 2 2 2 2 2 2 3 3 3 3 3 3 3 3 4 4 4 4 4 4 4 4 4 4 4 4 4 4 4 5 5 5 5 5 5 5 5 6 6 6 6 6 6 6 6 6 7 7 7 7 6 6 6 6 7 7 7 7 7
1 1 1 1 1 1 1 1 1 1 1 1 1 1 1 2 2 2 2 2 2 2 2 3 3 3 3 3 3 3 4 4 4 3 3 4 4 4 4 4 4 5 5 5 5 5 5 5 5 5 5 5 5 5 6 6 6 6 6 7 6 6 6 6 6 7 7 7 7
1 1 1 1 1 1 1 1 0 0 0 0 0 1 1 1 1 1 1 1 1 1 2 2 2 2 2 3 3 3 3 3 3 3 3 3 3 3 3 4 4 4 4 4 4 4 4 4 5 5 5 5 5 5 5 5 5 6 6 6 6 6 6 6 6 6 7 7 7
2 2 2 2 1 1 1 1 1 1 1 0 0 0 0 0 0 0 1 1 1 1 1 1 1 2 2 2 2 2 3 3 3 3 3 3 3 3 3 3 3 4 4 4 4 4 4 4 4 4 4 4 4 4 4 5 5 5 6 6 6 6 6 6 6 6 6 6 6
Height
1437 1438 1439 1439 1440 1441 1442 1442 1443 1444 1445 1445 1446 1447 1448 1449 1449 1450 1451 1452 1453 1455 1456 1457 1459 1460 1461 1463 1464 1465 1466 1468 1469 1470 1471 1473 1474 1475 1476 1478 1479 1480 1480 1481 1482 1482 1483 1483 1484 1485 1485 1485 1486 1487 1487 1488 1488 1489 1489 1489 1489 1489 1489 1489 1489 1489 1489 1489 1489
1436 1437 1438 1439 1440 1440 1441 1442 1442 1443 1444 1444 1445 1446 1447 1448 1449 1450 1451 1451 1452 1454 1455 1456 1458 1459 1460 1462 1463 1465 1466 1467 1469 1470 1471 1472 1473 1475 1476 1477 1478 1478 1479 1480 1480 1480 1481 1481 1482 1482 1483 1483 1484 1485 1485 1486 1487 1487 1487 1487 1487 1487 1487 1487 1487 1487 1487 1487 1487
1435 1436 1437 1438 1439 1440 1440 1441 1442 1442 1443 1444 1444 1445 1446 1448 1450 1451 1452 1452 1452 1453 1454 1455 1457 1458 1460 1461 1463 1464 1465 1467 1468 1469 1470 1471 1472 1474 1475 1475 1476 1477 1477 1478 1478 1478 1479 1479 1480 1480 1480 1480 1481 1482 1483 1484 1484 1485 1485 1485 1485 1485 1485 1485 1485 1485 1485 1485 1485
1436 1437 1437 1438 1438 1439 1440 1440 1440 1441 1442 1443 1444 1445 1447 1449 1450 1451 1452 1453 1453 1453 1454 1455 1455 1457 1459 1460 1461 1463 1464 1465 1467 1468 1469 1470 1471 1472 1473 1474 1475 1475 1475 1476 1476 1476 1476 1477 1477 1477 1477 1477 1478 1479 1480 1480 1481 1481 1482 1483 1483 1483 1482 1483 1483 1484 1483 1483 1484
1436 1437 1437 1438 1439 1440 1440 1440 1440 1441 1442 1443 1444 1445 1447 1448 1450 1450 1451 1452 1453 1454 1454 1455 1455 1456 1457 1458 1460 1462 1463 1465 1466 1467 1468 1468 1469 1470 1471 1471 1472 1472 1473 1473 1473 1473 1474 1474 1474 1474 1474 1474 1474 1475 1476 1477 1478 1478 1479 1479 1480 1480 1480 1481 1481 1482 1482 1481 1482
1436 1437 1437 1438 1439 1440 1441 1441 1441 1442 1442 1443 1444 1445 1446 1448 1449 1450 1451 1452 1453 1454 1455 1455 1456 1457 1458 1459 1460 1461 1463 1464 1465 1466 1467 1467 1468 1468 1469 1469 1470 1470 1470 1470 1470 1471 1471 1471 1471 1472 1472 1472 1472 1472 1473 1475 1475 1475 1475 1476 1477 1477 1478 1478 1479 1479 1480 1479 1480
1437 1437 1437 1438 1439 1440 1441 1442 1442 1443 1443 1444 1445 1446 1447 1449 1450 1450 1451 1452 1453 1454 1455 1455 1456 1457 1458 1459 1460 1460 1461 1463 1464 1465 1465 1466 1467 1467 1468 1468 1468 1468 1468 1469 1469 1470 1470 1470 1470 1470 1471 1471 1471 1471 1471 1472 1472 1473 1473 1474 1475 1475 1476 1476 1476 1477 1477 1477 1477
1437 1438 1439 1439 1440 1440 1441 1441 1442 1442 1443 1444 1445 1447 1448 1450 1450 1451 1452 1453 1453 1454 1454 1455 1456 1457 1458 1459 1460 1460 1461 1462 1463 1463 1464 1465 1465 1465 1465 1466 1466 1466 1467 1467 1468 1468 1468 1468 1469 1469 1470 1470 1470 1470 1470 1471 1471 1471 1471 1472 1472 1473 1474 1473 1474 1474 1474 1474 1475
1437 1439 1440 1440 1440 1441 1442 1442 1442 1442 1443 1444 1446 1447 1449 1450 1451 1452 1452 1453 1453 1453 1454 1454 1455 1455 1457 1458 1459 1459 1460 1461 1461 1461 1462 1462 1462 1463 1463 1463 1463 1464 1464 1465 1465 1466 1467 1467 1467 1468 1468 1469 1469 1469 1469 1469 1469 1469 1469 1470 1470 1470 1471 1471 1471 1471 1471 1471 1472
1439 1440 1441 1441 1441 1442 1443 1443 1443 1443 1444 1445 1446 1447 1449 1450 1450 1451 1452 1452 1453 1453 1453 1453 1454 1455 1455 1455 1456 1457 1458 1458 1458 1458 1459 1459 1460 1460 1460 1461 1461 1462 1462 1463 1464 1464 1465 1465 1465 1466 1466 1466 1466 1466 1466 1466 1467 1467 1467 1467 1467 1467 1468 1468 1468 1468 1468 1468 1469
1440 1441 1442 1442 1443 1444 1444 1444 1444 1444 1445 1446 1447 1448 1449 1449 1450 1450 1451 1451 1451 1452 1452 1453 1453 1454 1455 1455 1455 1455 1456 1456 1456 1457 1457 1458 1458 1459 1460 1460 1461 1461 1461 1461 1461 1461 1462 1462 1462 1463 1463 1463 1463 1463 1463 1464 1464 1464 1464 1464 1464 1464 1464 1464 1465 1465 1465 1465 1466
1441 1442 1443 1444 1444 1445 1445 1445 1445 1445 1446 1447 1448 1448 1449 1449 1449 1450 1450 1450 1451 1451 1451 1452 1452 1453 1453 1454 1454 1455 1455 1455 1456 1456 1456 1457 1457 1458 1459 1459 1459 1459 1459 1459 1459 1459 1460 1460 1460 1460 1461 1461 1461 1461 1461 1461 1462 1462 1462 1461 1461 1461 1460 1460 1461 1462 1462 1463 1464
1442 1443 1444 1444 1445 1445 1445 1446 1446 1447 1448 1448 1449 1449 1449 1449 1449 1449 1450 1450 1450 1450 1450 1450 1451 1452 1452 1453 1453 1454 1454 1455 1455 1455 1456 1456 1457 1457 1457 1457 1457 1458 1458 1458 1458 1458 1458 1458 1459 1459 1459 1459 1459 1459 1460 1460 1460 1460 1460 1460 1459 1459 1459 1459 1459 1460 1460 1461 1462
1444 1444 1444 1445 1445 1445 1446 1446 1447 1448 1449 1449 1449 1449 1449 1449 1449 1449 1449 1449 1449 1449 1450 1450 1450 1450 1451 1452 1452 1453 1453 1454 1454 1455 1455 1455 1455 1455 1455 1455 1456 1456 1457 1457 1457 1457 1457 1457 1457 1457 1457 1457 1457 1457 1458 1458 1458 1458 1458 1458 1458 1457 1457 1457 1458 1458 1459 1459 1459
1445 1445 1445 1445 1446 1446 1447 1447 1448 1448 1449 1449 1449 1449 1449 1449 1449 1448 1448 1448 1448 1448 1448 1449 1449 1450 1450 1450 1451 1452 1452 1453 1454 1454 1454 1454 1455 1455 1455 1455 1455 1455 1455 1456 1456 1456 1456 1456 1456 1455 1455 1455 1455 1455 1456 1456 1456 1456 1456 1456 1456 1455 1455 1456 1456 1457 1457 1457 1457
1445 1445 1446 1446 1446 1447 1447 1448 1448 1448 1449 1449 1449 1448 1448 1448 1448 1447 1447 1447 1447 1447 1448 1448 1449 1449 1449 1450 1450 1451 1451 1452 1453 1453 1453 1453 1453 1454 1454 1454 1454 1454 1455 1455 1455 1455 1455 1455 1454 1454 1454 1454 1454 1454 1454 1454 1454 1454 1454 1454 1454 1454 1454 1454 1455 1455 1455 1455 1455
1445 1446 1446 1446 1446 1447 1447 1448 1448 1448 1448 1448 1448 1447 1447 1447 1447 1446 1446 1446 1447 1447 1447 1447 1448 1448 1449 1449 1450 1450 1450 1451 1451 1452 1452 1452 1452 1452 1453 1453 1453 1453 1453 1454 1454 1453 1453 1453 1453 1452 1452 1452 1452 1452 1452 1452 1452 1452 1452 1451 1451 1452 1452 1452 1453 1453 1453 1453 1453
1446 1446 1446 1446 1446 1446 1447 1447 1447 1447 1447 1447 1446 1446 1446 1446 1446 1446 1446 1446 1446 1446 1446 1447 1447 1447 1448 1448 1449 1449 1450 1450 1450 1450 1451 1451 1451 1451 1451 1451 1452 1452 1452 1452 1452 1452 1452 1451 1451 1451 1450 1450 1450 1450 1450 1450 1450 1450 1449 1449 1449 1450 1450 1450 1450 1451 1451 1451 1451
1445 1445 1445 1445 1445 1445 1446 1446 1446 1446 1445 1445 1445 1446 1446 1446 1445 1445 1445 1445 1445 1446 1446 1446 1446 1447 1447 1447 1448 1448 1449 1449 1449 1450 1450 1450 1450 1450 1450 1450 1450 1450 1450 1450 1450 1450 1450 1450 1450 1449 1449 1449 1448 1448 1448 1448 1447 1447 1447 1448 1448 1448 1448 1448 1448 1449 1449 1449 1449
1445 1445 1445 1445 1445 1445 1445 1445 1445 1445 1445 1445 1445 1445 1445 1445 1445 1445 1445 1445 1445 1445 1445 1445 1446 1446 1446 1447 1447 1447 1447 1448 1448 1448 1448 1448 1448 1448 1448 1448 1448 1448 1448 1449 1449 1449 1449 1449 1448 1448 1448 1447 1447 1446 1446 1446 1445 1445 1446 1446 1446 1446 1446 1446 1446 1446 1446 1446 1446
1445 1444 1444 1444 1444 1444 1444 1444 1444 1445 1445 1445 1445 1445 1445 1445 1445 1445 1445 1445 1445 1445 1445 1445 1445 1445 1445 1446 1446 1446 1446 1446 1446 1446 1446 1446 1446 1446 1446 1446 1446 1446 1446 1447 1447 1447 1447 1447 1447 1446 1446 1445 1445 1445 1445 1445 1444 1444 1444 1444 1444 1445 1445 1445 1445 1445 1445 1445 1445
1444 1444 1444 1444 1444 1444 1444 1444 1444 1444 1444 1444 1444 1444 1444 1444 1444 1444 1444 1444 1444 1444 1444 1444 1444 1444 1445 1445 1445 1445 1445 1444 1444 1444 1444 1444 1444 1444 1444 1444 1445 1445 1445 1445 1445 1445 1445 1445 1445 1445 1444 1444 1443 1443 1443 1443 1443 1443 1443 1443 1443 1443 1443 1443 1443 1443 1443 1443 1443
1445 1444 1444 1444 1444 1444 1444 1444 1444 1444 1444 1444 1444 1444 1444 1444 1443 1443 1443 1443 1443 1443 1443 1443 1443 1443 1443 1443 1444 1443 1443 1443 1443 1443 1443 1442 1442 1442 1442 1442 1442 1443 1443 1443 1443 1443 1443 1443 1443 1443 1442 1442 1441 1441 1441 1441 1441 1441 1441 1441 1441 1442 1442 1442 1442 1442 1442 1442 1442
1445 1445 1445 1445 1444 1444 1444 1444 1444 1444 1444 1444 1443 1443 1443 1443 1443 1443 1443 1442 1442 1442 1442 1442 1442 1442 1442 1442 1442 1442 1442 1442 1441 1441 1441 1441 1440 1440 1440 1440 1440 1440 1441 1441 1441 1441 1441 1441 1441 1441 1440 1440 1440 1440 1439 1439 1439 1439 1439 1439 1439 1440 1440 1440 1440 1440 1440 1440 1440
1445 1445 1445 1445 1444 1444 1444 1444 1444 1444 1444 1443 1443 1443 1442 1442 1442 1442 1442 1442 1442 1441 1441 1441 1441 1441 1441 1441 1441 1441 1440 1440 1440 1440 1440 1439 1439 1439 1439 1439 1439 1439 1439 1439 1439 1440 1440 1440 1439 1439 1439 1438 1438 1438 1437 1437 1437 1437 1437 1437 1437 1437 1437 1437 1437 1437 1437 1437 1437
1445 1445 1445 1444 1444 1444 1444 1444 1443 1443 1443 1442 1442 1442 1441 1441 1441 1441 1441 1441 1441 1440 1440 1440 1440 1440 1440 1440 1440 1439 1439 1439 1438 1438 1438 1437 1437 1437 1437 1437 1437 1437 1437 1437 1437 1437 1437 1437 1437 1436 1436 1436 1435 1435 1435 1435 1435 1435 1435 1435 1435 1435 1435 1435 1435 1435 1435 1435 1435
1444 1444 1444 1444 1443 1443 1443 1443 1442 1442 1442 1441 1441 1441 1440 1440 1440 1440 1439 1439 1439 1439 1439 1439 1439 1439 1439 1438 1438 1438 1437 1437 1436 1436 1436 1435 1435 1435 1435 1435 1435 1435 1435 1435 1435 1434 1434 1434 1434 1434 1434 1433 1433 1433 1432 1432 1432 1432 1432 1432 1432 1432 1432 1432 1432 1432 1432 1432 1432
1443 1443 1443 1443 1442 1442 1442 1441 1441 1441 1440 1440 1440 1439 1439 1439 1438 1438 1438 1437 1437 1437 1437 1437 1437 1437 1436 1436 1436 1436 1435 1435 1435 1434 1434 1433 1433 1433 1433 1433 1433 1432 1432 1432 1432 1431 1431 1431 1431 1431 1431 1431 1431 1430 1430 1430 1430 1429 1429 1429 1429 1430 1430 1430 1430 1430 1430 1430 1430
1442 1442 1442 1441 1441 1441 1440 1440 1440 1439 1439 1439 1438 1438 1437 1437 1437 1436 1436 1436 1435 1435 1435 1435 1434 1434 1434 1434 1433 1433 1433 1433 1432 1432 1432 1431 1431 1431 1431 1430 1430 1430 1430 1430 1430 1429 1429 1428 1428 1428 1428 1428 1428 1428 1427 1427 1427 1427 1427 1426 1427 1427 1427 1427 1427 1427 1427 1427 1427
1441 1440 1440 1440 1440 1439 1439 1439 1438 1438 1438 1437 1437 1436 1436 1436 1435 1435 1434 1434 1434 1433 1433 1432 1432 1432 1431 1431 1430 1430 1430 1430 1430 1430 1430 1429 1429 1429 1429 1428 1428 1428 1428 1428 1427 1427 1426 1426 1425 1425 1425 1425 1425 1425 1424 1424 1424 1424 1424 1424 1424 1424 1424 1424 1425 1425 1425 1425 1425
1439 1439 1438 1438 1438 1437 1437 1437 1436 1436 1436 1435 1435 1435 1435 1434 1434 1433 1432 1432 1432 1431 1431 1431 1430 1430 1429 1429 1429 1428 1428 1427 1427 1427 1427 1427 1427 1426 1426 1426 1426 1426 1425 1425 1425 1424 1424 1423 1423 1423 1422 1422 1422 1422 1421 1421 1421 1421 1421 1421 1421 1421 1421 1422 1422 1422 1422 1422 1422
1439 1438 1438 1437 1436 1436 1435 1435 1435 1434 1434 1433 1433 1433 1432 1432 1431 1431 1430 1430 1430 1430 1429 1429 1428 1428 1427 1427 1427 1426 1426 1425 1425 1425 1425 1424 1424 1424 1424 1424 1424 1424 1423 1423 1422 1422 1421 1421 1420 1420 1420 1420 1419 1419 1419 1418 1418 1418 1418 1418 1418 1418 1419 1419 1419 1419 1419 1419 1419
1440 1440 1439 1438 1437 1436 1435 1434 1434 1433 1432 1431 1431 1430 1430 1430 1429 1429 1428 1428 1428 1427 1427 1426 1426 1425 1425 1425 1424 1424 1424 1423 1423 1423 1422 1422 1422 1421 1421 1421 1421 1421 1421 1420 1420 1420 1419 1419 1418 1418 1417 1417 1417 1416 1416 1415 1415 1415 1415 1415 1415 1415 1416 1416 1416 1416 1416 1416 1416
1441 1440 1440 1439 1438 1437 1436 1435 1435 1434 1433 1432 1431 1430 1429 1428 1428 1427 1426 1426 1425 1425 1425 1424 1424 1423 1423 1422 1422 1422 1421 1421 1421 1420 1420 1420 1419 1419 1419 1418 1418 1418 1418 1418 1418 1417 1417 1416 1416 1415 1415 1415 1414 1414 1413 1413 1413 1412 1412 1412 1412 1412 1413 1413 1413 1413 1413 1414 1414
1441 1440 1440 1439 1439 1438 1437 1436 1435 1435 1434 1433 1432 1431 1430 1429 1428 1427 1426 1425 1425 1424 1424 1423 1422 1422 1421 1421 1420 1420 1420 1419 1419 1419 1418 1417 1417 1416 1416 1415 1415 1416 1416 1415 1415 1415 1415 1414 1414 1413 1413 1412 1412 1411 1410 1410 1410 1410 1410 1409 1409 1409 1410 1410 1410 1410 1411 1411 1411
1439 1439 1438 1438 1437 1437 1436 1436 1435 1435 1434 1433 1432 1431 1430 1430 1429 1427 1426 1425 1424 1424 1423 1422 1421 1420 1420 1419 1419 1418 1418 1417 1417 1416 1416 1415 1415 1414 1413 1413 1413 1413 1413 1413 1412 1412 1412 1412 1411 1411 1410 1410 1409 1409 1408 1408 1407 1407 1407 1407 1407 1407 1407 1407 1407 1408 1408 1408 1408
1437 1437 1436 1436 1435 1435 1435 1434 1433 1433 1432 1431 1431 1430 1429 1428 1428 1427 1426 1425 1424 1422 1421 1420 1420 1419 1418 1417 1417 1416 1416 1415 1415 1414 1413 1413 1413 1412 1411 1410 1410 1410 1410 1410 1410 1410 1409 1409 1409 1409 1408 1407 1407 1406 1406 1405 1405 1404 1404 1404 1404 1404 1405 1405 1405 1405 1405 1405 1405
1435 1435 1434 1433 1433 1432 1432 1431 1431 1430 1430 1429 1429 1428 1427 1427 1426 1425 1424 1423 1422 1421 1420 1419 1418 1417 1417 1416 1415 1414 1414 1414 1413 1412 1411 1410 1410 1409 1408 1407 1407 1407 1407 1407 1407 1407 1406 1406 1406 1406 1405 1405 1404 1404 1403 1403 1402 1402 1401 1401 1401 1401 1402 1402 1402 1402 1402 1403 1403
1433 1433 1432 1432 1431 1430 1430 1429 1429 1428 1427 1427 1426 1425 1425 1424 1424 1423 1422 1421 1420 1419 1418 1417 1416 1416 1415 1414 1413 1412 1412 1411 1411 1410 1409 1408 1408 1407 1406 1405 1404 1404 1405 1405 1405 1404 1404 1404 1404 1404 1403 1403 1402 1401 1401 1400 1400 1399 1399 1399 1399 1399 1399 1399 1399 1400 1400 1400 1400
1432 1432 1431 1430 1430 1429 1428 1427 1427 1426 1425 1425 1424 1423 1422 1422 1421 1420 1420 1419 1418 1417 1416 1415 1415 1414 1413 1412 1411 1410 1409 1409 1409 1408 1407 1406 1405 1405 1404 1403 1402 1402 1402 1402 1402 1401 1401 1401 1401 1401 1401 1400 1400 1399 1398 1398 1397 1396 1396 1396 1396 1396 1396 1396 1396 1397 1397 1397 1397
1431 1430 1430 1429 1428 1427 1427 1426 1425 1425 1424 1423 1422 1421 1420 1420 1419 1418 1417 1417 1416 1415 1414 1413 1412 1411 1410 1410 1409 1408 1407 1406 1406 1405 1405 1404 1403 1402 1402 1401 1400 1400 1399 1400 1399 1399 1399 1398 1398 1398 1398 1398 1397 1396 1396 1395 1395 1394 1393 1393 1393 1393 1393 1393 1394 1394 1394 1394 1395
Wind_Speed
23 24 25 25 24 24 24 24 24 24 24 25 26 27 28 30 34 39 41 40 37 34 33 32 32 32 32 32 32 31 31 31 32 32 34 35 37 38 38 38 38 37 36 35 34 34 34 34 35 36 36 36 36 36 35 35 36 36 37 37 37 37 37 38 38 38 39 40 41
20 20 22 23 23 24 23 23 22 22 21 21 22 23 23 24 26 28 30 29 30 30 31 30 31 31 31 31 30 30 29 29 30 30 31 33 34 35 37 37 37 37 36 35 35 35 35 36 36 37 37 37 36 36 35 35 36 37 38 38 38 38 39 39 39 40 41 42 43
15 15 16 18 19 20 20 20 20 19 18 18 18 18 18 19 20 20 20 20 23 25 28 30 31 31 31 31 30 29 28 28 28 28 28 29 30 32 33 34 34 35 35 35 36 36 36 37 37 38 38 38 38 38 38 37 38 38 39 40 40 40 41 41 42 43 44 45 45
7 7 9 10 11 12 13 14 14 15 15 15 15 15 15 15 16 16 15 15 16 19 22 25 27 30 31 31 31 31 30 29 28 28 29 29 29 30 31 32 33 34 35 36 37 37 38 38 38 39 40 41 41 41 40 40 40 41 41 42 42 42 43 43 44 45 46 47 47
9 9 8 8 7 5 5 6 7 9 10 10 9 9 9 10 10 10 10 10 10 12 15 17 19 22 24 26 28 29 30 31 31 32 32 32 33 33 34 34 35 36 37 38 39 39 39 39 40 40 41 40 39 39 39 40 41 42 42 42 43 43 43 44 44 45 47 48 48
11 12 13 14 12 10 9 8 7 8 9 9 9 8 6 5 4 5 6 7 7 8 9 11 12 14 15 17 19 22 26 28 30 31 31 32 33 34 35 35 35 35 35 35 35 36 36 36 37 37 36 35 34 34 36 38 39 39 40 39 40 41 42 42 42 44 46 47 47
9 10 13 15 14 12 10 8 7 8 9 9 8 7 6 5 3 3 4 5 6 6 7 8 9 10 12 13 14 16 18 20 21 23 24 26 28 30 30 30 30 29 28 28 28 30 31 31 31 31 31 31 31 31 32 34 35 36 36 36 37 39 40 40 41 42 43 44 44
10 10 11 12 12 11 10 9 9 9 9 10 9 8 6 6 5 5 4 4 5 5 6 7 8 10 11 13 14 15 16 16 17 18 19 21 24 25 26 26 26 25 25 25 26 28 29 30 29 29 28 28 29 30 31 33 34 34 35 36 37 38 39 39 40 41 42 42 41
9 9 9 9 10 10 11 11 10 10 11 11 11 11 10 9 8 6 5 5 5 6 7 8 9 10 12 12 13 14 15 16 18 19 19 20 21 22 23 23 22 23 23 24 26 27 28 28 28 28 27 26 27 28 30 32 34 35 36 37 38 39 40 41 42 42 42 40 40
9 8 6 6 7 8 10 11 11 11 12 12 13 13 12 11 10 9 8 8 9 9 10 10 11 12 12 13 13 14 14 15 17 18 18 17 17 16 17 17 19 20 20 21 23 24 25 27 28 27 26 26 25 26 28 30 32 35 37 39 40 41 43 44 44 44 42 40 39
10 9 8 7 6 6 6 7 8 9 10 10 11 12 12 12 12 11 11 11 11 11 12 12 13 14 14 15 15 15 15 15 15 16 16 15 14 14 14 16 17 18 19 19 19 21 23 24 26 27 26 25 24 24 24 26 28 31 33 36 39 41 42 43 43 42 40 39 37
11 11 11 10 10 8 7 6 5 5 6 6 7 8 9 9 9 9 8 7 7 7 8 10 12 14 15 16 17 17 16 15 14 14 13 13 13 14 15 16 17 17 17 16 16 16 17 18 20 21 22 22 21 21 21 22 23 24 26 29 31 34 35 36 36 35 35 34 33
10 10 10 10 10 9 8 7 5 4 4 4 4 5 5 5 5 5 5 5 4 3 2 3 6 9 11 13 15 15 15 15 14 12 12 12 14 16 17 17 17 15 13 12 12 12 13 14 15 16 17 18 19 20 20 21 21 21 21 22 23 24 25 25 25 26 26 27 27
8 8 8 8 8 7 7 6 5 4 3 2 2 2 2 2 2 2 3 4 4 4 3 1 1 2 5 7 10 12 13 13 12 11 11 12 14 15 16 15 14 12 10 10 11 12 13 14 14 15 16 18 19 20 22 22 22 22 21 20 19 18 17 18 19 20 21 21 22
6 6 6 6 6 5 5 5 4 3 3 2 2 2 2 2 2 2 2 2 2 2 2 3 3 2 2 3 6 9 11 12 11 10 11 11 11 11 12 11 10 10 10 11 12 14 14 15 15 16 17 19 20 21 22 23 23 22 21 20 19 17 16 17 17 19 20 20 20
6 5 5 5 5 5 5 4 4 4 3 3 4 4 4 4 4 4 5 4 4 3 2 3 4 4 4 5 6 7 9 9 9 10 11 11 9 9 10 10 10 11 12 13 14 15 15 16 16 17 18 19 21 21 22 23 23 21 19 19 18 17 16 16 17 19 20 20 20
7 6 5 5 4 4 4 4 4 4 4 4 4 5 5 6 6 6 6 6 6 5 5 4 4 4 5 6 7 7 8 8 9 10 11 10 9 10 11 12 13 13 14 15 16 17 17 17 17 18 19 20 21 21 22 23 23 21 19 17 17 16 15 15 17 18 19 20 20
8 8 7 6 6 5 5 4 4 4 4 4 4 5 5 6 6 6 7 7 7 7 7 6 6 5 6 7 7 8 8 9 10 11 12 12 11 12 13 14 15 16 17 17 18 18 18 18 19 19 20 21 22 22 22 23 23 22 21 20 19 17 16 16 17 18 19 20 20
9 9 8 8 7 6 6 5 5 5 5 5 4 4 4 5 5 6 6 6 7 7 8 8 8 8 8 9 10 11 12 13 13 14 15 15 15 16 16 17 18 18 19 19 20 20 19 19 19 20 21 22 23 23 23 23 23 23 24 24 24 23 21 20 19 19 19 20 20
10 10 9 9 8 7 7 6 6 5 5 5 5 5 4 4 5 5 6 7 7 8 9 10 11 11 11 12 13 14 15 16 17 18 18 19 19 20 20 20 20 21 21 22 22 21 21 20 19 20 20 21 22 23 23 23 24 24 25 26 26 26 26 24 23 22 22 22 22
11 11 10 10 9 8 8 7 6 6 6 5 5 5 5 5 5 5 6 6 8 9 11 12 12 13 14 14 15 16 16 17 18 19 19 20 19 19 20 21 23 23 24 24 25 24 23 22 21 20 20 20 21 21 22 22 23 24 24 25 26 26 26 26 25 25 25 25 25
12 11 11 10 10 9 8 8 7 7 6 6 5 5 5 5 5 6 6 7 8 9 10 12 13 14 15 16 17 17 18 19 19 19 19 19 19 18 19 20 23 24 26 27 27 27 26 25 23 22 21 21 20 21 21 21 22 23 24 24 25 26 26 26 26 27 28 28 28
11 11 10 10 10 9 9 9 8 8 8 7 6 6 5 5 5 6 6 7 8 9 10 11 12 13 15 16 18 19 20 20 20 21 21 21 21 20 20 20 21 23 25 26 27 26 25 25 25 24 24 23 23 23 23 23 24 24 25 25 26 27 27 28 29 29 30 30 29
11 11 11 10 10 10 10 10 10 9 9 9 9 8 8 7 7 6 6 7 7 8 9 10 11 12 14 15 17 18 20 21 21 22 23 23 23 23 22 22 22 23 23 24 25 24 24 24 25 25 26 26 26 26 25 26 26 27 27 28 28 29 29 30 30 30 30 30 29
11 11 11 11 11 11 11 11 11 11 12 12 12 11 11 10 10 9 8 8 8 8 9 9 10 11 12 14 15 16 18 19 20 21 22 23 24 24 24 24 24 24 24 24 24 24 24 24 24 25 26 27 27 28 28 28 28 28 29 29 30 30 30 30 29 29 28 28 28
12 12 12 12 12 12 13 13 13 13 13 14 14 14 14 14 14 13 12 11 11 10 10 10 10 11 11 12 13 14 15 17 18 19 20 21 22 23 24 24 25 26 26 26 26 26 25 25 24 24 25 25 26 27 28 28 28 28 28 29 29 29 29 28 27 26 26 26 27
14 14 13 13 13 14 14 14 14 15 15 15 15 16 16 16 16 16 16 16 15 15 14 13 13 12 12 12 12 13 14 15 16 17 18 19 20 21 22 23 24 25 26 27 27 28 28 28 27 27 27 26 26 26 26 26 26 26 25 26 26 26 26 25 24 24 24 25 25
15 15 15 15 15 15 15 15 15 16 16 16 17 17 18 18 18 18 18 19 19 18 18 18 17 17 16 15 15 14 14 14 15 16 17 18 19 20 20 21 22 23 24 25 26 27 28 29 29 30 30 30 29 29 29 28 27 26 25 25 25 25 24 24 23 23 24 24 24
16 16 16 16 16 16 16 16 16 17 17 17 18 18 19 19 19 19 20 20 20 20 20 20 21 20 20 19 19 18 17 17 16 16 17 17 18 19 20 21 21 22 22 22 23 24 25 27 28 29 30 31 31 32 32 31 31 30 29 28 27 26 25 24 24 24 25 25 25
17 17 17 17 17 17 18 18 18 18 18 18 18 19 19 19 20 20 20 21 21 21 22 22 22 22 22 22 22 22 21 21 20 20 19 19 19 19 19 20 21 21 21 22 22 23 23 24 25 26 27 29 30 32 33 33 33 33 32 31 30 29 27 26 26 26 27 26 26
19 19 19 19 19 19 19 19 19 19 19 19 19 20 20 20 20 21 21 21 21 22 22 23 23 23 23 23 23 23 23 23 23 23 22 22 21 21 20 20 21 21 21 22 22 23 23 23 23 24 24 25 27 29 30 32 33 33 32 32 31 30 29 28 28 28 28 28 26
19 20 20 21 21 21 21 22 22 22 21 21 22 22 22 21 21 22 22 22 22 22 22 23 23 23 24 24 24 24 25 25 25 25 25 25 24 24 23 23 22 22 22 22 22 23 23 24 24 23 23 23 24 25 27 29 31 31 32 32 32 31 31 30 30 30 29 28 27
18 19 19 20 21 21 22 22 23 23 23 24 24 24 24 24 24 23 23 23 24 24 24 24 24 24 25 25 25 25 25 26 26 26 26 26 26 26 26 26 25 24 23 22 22 23 23 24 24 24 23 23 23 24 25 27 29 30 31 32 32 32 32 32 32 32 31 30 29
17 17 18 19 19 20 21 21 22 23 23 24 24 25 25 25 26 26 26 26 26 25 25 26 26 26 26 26 26 26 26 26 26 26 26 27 27 28 28 27 27 26 25 24 23 23 23 24 24 24 24 24 24 24 24 25 27 29 30 31 32 33 33 33 33 33 32 31 30
18 18 18 18 18 19 19 20 20 21 21 22 23 23 24 25 25 26 26 27 27 27 27 27 27 27 27 27 27 27 27 27 26 26 26 27 27 28 29 29 29 28 27 25 25 24 24 23 24 24 24 24 25 25 25 25 26 27 29 30 32 32 33 33 33 32 32 31 30
19 19 19 19 19 19 19 20 20 20 20 21 21 22 23 23 24 25 25 26 27 27 27 27 27 28 28 28 28 28 28 28 27 27 27 27 27 28 29 30 30 29 28 27 26 25 24 24 23 23 24 24 25 26 26 26 27 27 28 29 30 31 32 32 32 31 31 30 30
21 21 21 21 21 21 21 21 21 21 21 21 21 22 22 23 23 24 24 25 26 27 27 28 28 28 29 29 29 29 29 29 29 29 28 28 28 28 29 29 30 30 29 29 28 27 26 25 24 23 23 24 25 26 27 27 27 28 28 29 30 30 31 31 31 31 30 30 30
24 24 24 24 24 24 23 23 23 23 23 22 23 23 23 23 23 24 24 25 26 26 27 27 28 28 29 29 30 30 30 29 30 30 30 30 29 29 29 29 30 30 29 29 29 28 27 26 25 24 23 24 25 26 27 27 28 28 29 29 30 30 31 31 31 31 31 30 30
27 27 27 26 26 26 26 25 25 25 25 25 25 25 24 24 25 25 25 25 26 26 27 28 28 28 28 29 30 30 30 30 30 30 30 30 30 30 30 30 30 30 29 29 29 29 29 28 26 25 24 23 24 25 26 27 28 28 29 29 30 30 31 31 31 31 31 31 30
30 30 29 29 29 29 29 28 28 27 27 27 27 27 27 26 26 26 26 26 26 27 28 28 28 29 29 29 30 30 30 30 30 30 30 30 31 31 31 31 31 30 30 29 29 29 29 29 28 26 24 23 23 24 25 27 28 28 29 29 29 30 30 31 31 31 31 30 30
32 32 32 31 31 31 31 31 30 30 30 29 29 29 29 29 28 28 28 28 28 28 28 29 29 29 30 30 30 31 31 31 31 30 30 30 31 31 31 31 31 31 30 29 29 28 29 29 28 27 25 24 23 23 24 26 27 28 28 28 28 28 29 30 30 31 30 30 29
Wind_Direction
229 232 235 236 236 235 234 233 233 232 230 229 229 226 219 210 207 208 211 211 210 211 214 215 217 217 217 217 217 217 217 217 217 217 217 217 218 219 220 223 225 227 229 231 232 233 234 235 237 239 241 242 242 242 242 241 240 240 240 240 240 240 240 241 242 243 243 244 244
223 227 232 234 235 235 235 234 234 231 228 225 224 222 218 213 207 203 201 200 200 204 210 213 215 216 216 216 217 217 218 219 219 219 219 219 220 221 222 224 226 228 230 231 233 234 235 236 237 239 240 241 242 242 241 241 240 241 241 241 241 242 242 242 243 244 245 245 243
214 221 227 230 232 234 236 237 235 230 224 219 216 213 210 209 208 207 204 202 200 203 207 211 213 214 215 216 216 216 218 219 220 221 221 222 222 223 224 225 227 228 230 231 232 233 234 235 236 237 239 239 240 240 240 240 239 239 239 239 241 241 242 242 243 244 244 243 242
181 194 208 216 222 228 232 232 228 221 213 209 206 205 205 207 210 212 212 212 209 207 207 209 210 212 213 214 215 215 217 218 219 221 222 222 222 223 224 225 226 227 228 229 230 231 232 233 234 235 236 237 238 238 237 237 236 236 236 236 238 239 239 240 241 242 243 242 242
106 111 125 140 151 156 163 177 183 183 180 176 175 178 185 195 201 204 205 206 210 212 211 211 211 212 212 212 213 214 215 217 219 221 222 223 224 225 226 226 227 228 229 230 232 232 233 233 234 235 235 235 234 233 233 233 234 234 234 234 235 236 236 237 238 240 242 244 244
91 99 108 113 116 112 108 114 122 126 125 121 115 112 115 124 145 170 184 193 201 208 213 216 218 219 219 218 215 213 213 216 218 220 222 224 225 227 229 230 231 231 232 234 235 235 236 236 237 237 237 238 238 236 235 235 235 235 236 237 237 237 237 238 238 239 241 243 244
89 96 103 108 112 111 109 108 108 110 112 111 108 104 102 106 122 154 177 186 192 199 207 214 222 228 230 228 224 218 215 216 218 220 222 224 226 228 229 230 232 233 234 236 238 239 240 242 244 245 246 247 247 246 244 243 243 243 244 245 244 243 243 243 242 241 242 243 244
82 87 97 108 118 124 126 127 128 129 132 135 137 138 144 152 159 166 172 179 189 197 203 207 215 223 230 232 232 231 228 227 227 227 227 226 226 226 227 228 230 231 233 235 237 240 242 246 250 253 254 254 254 253 253 252 252 253 253 253 252 251 251 250 248 246 245 245 246
75 82 94 113 129 139 144 149 151 154 158 162 163 165 168 171 169 170 174 184 194 207 215 218 220 222 225 229 232 234 234 233 232 232 233 232 230 229 229 231 233 234 234 234 236 239 242 246 249 252 254 255 256 256 256 256 256 256 256 255 254 254 255 255 254 252 250 250 250
70 76 86 104 126 139 149 156 159 162 166 171 174 176 177 178 177 179 185 193 200 209 218 226 229 230 231 233 236 238 237 234 233 233 235 238 239 241 242 245 245 242 238 235 235 236 239 241 243 244 246 248 251 253 254 254 255 255 254 253 252 252 253 254 254 254 253 253 253
56 55 55 58 68 88 113 133 147 155 161 167 172 174 175 175 178 183 189 195 200 206 214 222 229 233 236 239 244 246 246 242 238 237 238 242 246 249 251 251 248 243 238 233 232 233 235 237 239 240 241 243 246 249 252 253 254 255 254 253 252 252 252 252 252 252 252 253 254
40 38 38 38 40 44 54 72 97 122 141 154 159 158 157 158 164 171 176 179 183 193 206 218 226 232 236 240 244 247 248 247 244 241 242 246 248 247 245 243 241 239 237 236 236 238 239 241 243 244 245 247 249 251 254 255 256 257 257 257 255 254 252 252 251 251 251 253 254
32 30 29 29 29 29 32 40 54 73 93 112 122 121 118 121 131 138 133 120 108 106 149 206 223 232 236 238 240 242 243 243 241 241 244 249 249 245 239 237 237 240 244 250 256 260 261 260 259 258 258 257 257 257 257 258 258 260 262 262 260 256 254 252 251 251 252 253 254
29 26 24 23 23 23 23 24 27 30 38 53 70 78 78 80 88 93 91 86 79 66 49 24 269 238 233 234 235 235 234 232 234 240 251 256 252 244 237 234 236 241 251 262 268 271 271 270 269 267 265 263 261 259 258 258 260 263 266 266 263 259 257 256 256 256 256 257 258
30 24 20 15 12 10 10 11 8 1 348 326 310 299 294 299 305 311 320 340 23 41 28 360 343 329 292 271 257 246 239 236 243 257 270 273 264 249 238 235 237 242 251 258 262 265 267 267 267 266 264 262 261 259 258 257 260 266 273 275 270 265 262 261 260 261 262 263 264
49 40 29 16 6 1 359 357 355 348 335 316 304 297 291 288 287 286 288 292 298 307 324 336 330 320 309 304 296 281 268 262 267 274 279 282 275 256 242 240 242 245 249 253 258 261 263 264 264 263 262 261 260 258 257 256 259 267 279 286 285 280 274 268 265 263 264 266 267
71 67 60 49 34 20 10 3 357 351 343 331 319 309 302 295 291 287 285 284 284 286 292 301 302 297 290 288 291 291 286 277 272 269 269 270 264 250 240 240 244 247 251 254 258 261 263 264 264 263 262 261 260 258 257 256 258 264 274 284 289 290 288 283 276 271 267 266 267
69 68 67 65 59 50 40 29 19 11 2 351 338 322 309 300 293 289 287 285 284 284 285 285 282 276 269 266 268 268 265 260 261 261 260 258 251 243 238 239 242 247 251 256 259 262 263 265 265 265 265 263 262 260 258 258 259 261 265 269 272 276 281 284 285 283 279 274 270
55 55 54 53 51 48 43 36 29 21 14 6 355 341 324 308 296 286 279 275 275 276 277 276 273 267 261 256 254 253 252 252 255 257 257 254 248 242 238 238 242 247 252 254 257 259 261 262 264 265 265 265 264 262 261 260 260 260 260 261 262 263 266 272 280 287 289 287 282
45 43 41 39 36 33 29 24 19 14 8 2 355 348 338 325 309 292 276 263 257 256 257 260 261 260 258 254 252 251 252 252 253 256 257 256 251 244 239 238 242 249 253 254 254 255 256 257 258 259 261 263 264 264 264 263 262 261 260 259 259 259 261 265 272 281 289 293 292
38 36 34 30 27 23 19 14 8 2 356 350 344 339 334 326 317 305 290 273 261 253 249 249 252 255 256 257 257 256 255 255 256 258 261 263 260 252 244 240 243 248 253 255 254 252 251 250 251 252 254 257 259 262 264 265 266 266 265 263 261 260 260 264 271 279 287 291 293
29 27 25 22 19 15 12 8 2 356 350 343 337 331 325 320 314 308 300 290 278 268 260 255 253 254 256 258 260 261 261 262 264 267 269 271 271 266 258 251 248 250 253 256 256 253 250 247 246 247 249 251 254 256 259 262 264 266 267 267 266 265 266 268 273 279 285 288 289
15 13 11 9 6 4 1 358 354 349 343 338 332 327 322 317 310 304 298 292 285 280 274 269 264 261 259 259 260 261 262 264 266 267 269 270 272 272 269 264 259 256 256 257 259 258 256 251 247 247 248 250 252 254 255 257 259 261 264 265 267 268 269 272 275 278 281 283 284
1 358 355 352 349 347 345 343 341 337 335 333 330 328 324 319 312 305 297 288 282 277 274 273 271 268 266 264 263 263 263 264 263 263 263 264 265 267 268 267 266 264 262 261 262 263 262 259 255 252 251 252 253 254 255 255 257 259 261 263 265 267 268 270 272 274 277 278 278
351 347 343 339 337 335 332 330 328 328 327 327 326 324 322 319 316 311 306 298 289 281 276 272 271 269 268 267 267 266 266 266 265 264 263 262 262 262 263 264 265 265 266 267 267 267 266 264 262 259 257 256 256 256 256 256 257 259 261 263 264 266 267 268 269 271 274 275 276
345 341 338 335 332 329 326 324 323 322 321 320 318 317 316 315 313 312 310 307 302 298 292 286 281 276 273 271 270 270 269 269 269 268 267 266 264 263 262 262 262 263 264 265 267 267 267 267 266 265 264 262 261 260 259 258 258 259 260 261 262 263 264 266 268 271 274 276 277
342 340 338 335 332 329 327 324 322 320 317 315 313 312 311 310 309 309 308 306 305 303 301 298 295 291 287 283 280 278 276 275 274 273 272 270 269 267 265 264 263 262 262 263 263 264 265 265 265 265 265 265 265 265 265 264 264 263 263 262 262 262 262 264 267 271 275 277 278
340 339 337 335 333 331 328 326 324 321 318 316 314 313 311 309 308 307 305 304 303 302 301 299 298 296 295 292 290 288 286 284 282 280 278 275 273 271 269 267 265 264 264 264 264 264 264 264 263 263 262 262 263 264 265 266 268 268 268 267 265 263 263 265 268 272 276 278 278
339 338 336 335 333 332 330 328 327 325 323 320 318 316 314 312 310 308 306 304 303 302 301 300 299 298 297 296 294 293 291 290 290 288 285 282 279 277 274 272 270 268 267 267 267 267 266 266 266 265 263 262 261 260 261 262 263 265 266 266 265 265 265 267 270 274 276 277 278
340 338 337 335 334 333 331 330 329 328 326 324 322 320 318 315 313 311 309 307 306 305 303 302 301 300 299 297 296 295 294 292 292 291 289 288 286 284 281 279 277 274 273 271 270 269 269 269 269 268 267 266 264 262 260 260 260 261 262 262 262 263 264 268 272 274 275 275 275
342 340 339 337 336 334 333 332 331 330 328 326 324 323 321 319 317 316 314 312 310 308 306 304 303 301 299 297 296 295 294 292 292 291 290 289 287 286 286 285 284 282 280 277 275 273 272 271 271 271 271 270 268 265 263 260 259 259 260 260 261 261 262 265 268 271 271 271 270
345 343 341 340 338 337 335 334 332 331 329 327 325 324 322 321 320 318 317 315 313 311 309 307 305 303 301 298 297 295 294 292 291 290 290 289 287 286 286 285 286 286 285 283 281 278 276 274 273 274 274 274 273 270 266 262 259 258 258 258 259 260 260 262 264 265 265 265 265
349 346 345 343 341 339 337 336 334 332 330 329 327 325 323 322 320 318 316 315 314 313 312 311 309 308 306 304 301 299 297 295 293 292 291 289 288 287 285 285 284 285 285 286 284 283 280 278 276 275 275 274 274 272 269 265 261 258 256 255 256 257 258 260 261 262 262 262 262
352 350 348 345 344 342 340 338 336 334 332 330 329 327 325 323 321 319 317 316 315 314 313 312 311 310 309 307 306 304 301 299 297 295 293 291 290 288 286 285 283 283 283 284 284 284 283 281 279 276 275 273 272 271 270 267 263 259 256 254 254 254 255 256 258 260 261 262 262
352 350 349 347 345 343 341 339 338 335 333 332 330 328 326 325 323 321 319 317 316 314 313 311 310 309 308 307 306 305 304 302 300 298 296 294 292 289 287 285 284 283 282 282 283 283 283 282 280 278 275 272 271 270 268 267 264 261 258 256 255 254 254 254 256 258 260 262 263
351 349 347 346 345 343 341 339 338 336 333 332 330 328 327 325 324 322 320 319 317 315 313 312 310 309 308 306 305 305 304 304 303 301 299 296 294 291 289 286 285 283 282 282 282 282 282 282 282 279 276 273 270 268 267 266 264 262 260 258 257 256 255 256 257 259 261 262 263
350 348 346 345 344 342 341 339 337 335 333 331 330 328 326 325 323 322 320 319 317 315 314 313 312 310 309 308 306 305 304 304 303 302 301 299 298 295 292 288 286 284 283 282 282 281 281 281 282 281 278 274 271 268 267 266 265 263 262 260 259 258 257 257 258 259 261 263 264
349 347 346 344 343 341 340 339 337 335 333 331 330 328 326 324 323 322 320 319 318 316 314 313 312 311 310 309 307 305 304 303 303 302 301 300 300 298 296 293 289 286 284 282 281 281 280 280 281 281 279 276 273 270 267 266 265 264 262 261 260 259 259 258 258 259 260 262 263
346 345 344 343 342 340 339 338 337 335 334 332 330 328 327 325 324 322 321 320 318 317 315 313 312 311 310 309 307 305 304 303 302 301 301 300 299 299 298 296 293 289 286 284 282 281 280 279 279 280 279 277 274 271 268 266 265 263 262 262 261 261 260 259 258 258 258 259 261
343 342 342 340 340 339 338 337 336 335 334 332 331 329 328 326 325 323 321 320 319 317 315 313 312 311 310 309 307 305 304 303 302 301 300 299 298 298 297 296 295 292 290 287 284 282 280 279 278 278 278 277 275 271 268 266 264 263 262 262 262 261 261 260 259 258 258 257 258
339 338 338 337 336 336 335 335 334 333 332 332 331 330 329 327 326 324 322 321 319 317 315 314 313 312 311 310 308 306 305 304 302 301 300 299 298 297 296 295 294 293 291 289 286 284 281 279 277 277 277 276 274 271 267 265 263 262 262 261 261 261 260 260 260 259 258 257 257